Regional Weather Roundup
Issued by NWS

Home | Current Version | Previous Version | Graphics & Text | Print | Product List | Glossary On
Versions: 1 2 3 4 5 6 7 8 9 10 11 12 13 14 15 16 17 18 19 20 21 22 23 24 25 26 27 28 29 30 31 32 33 34 35 36 37 38 39 40 41 42 43 44 45 46 47 48 49 50
000
ASUS45 KTFX 010404
RWRMT
MONTANA REGIONAL WEATHER ROUNDUP
NATIONAL WEATHER SERVICE GREAT FALLS MT
1000 PM MDT MON AUG 31 2015

NOTE: "FAIR" INDICATES FEW OR NO CLOUDS BELOW 12000 FEET WITH NO
SIGNIFICANT WEATHER AND/OR OBSTRUCTIONS TO VISIBILITY.

MTZ001>007-043-010500-
WEST OF THE DIVIDE

CITY           SKY/WX    TMP DP  RH WIND       PRES   REMARKS
KALISPELL      CLOUDY    61  43  51 N3        29.89S
MISSOULA       CLEAR     56  42  59 NW9       29.93R
BUTTE          CLEAR     61  37  41 CALM      30.01R
MULLAN PASS    PTCLDY    49  39  68 SW9       30.01S
DEER LODGE       N/A     59  37  44 CALM      30.00R
EUREKA           N/A     59  45  58 CALM      29.89S
HAMILTON         N/A     59  45  58 S2        29.93R
LIBBY            N/A     57  45  62 CALM      29.88F
$$

MTZ008-052>055-010500-
SOUTHWEST MONTANA

CITY           SKY/WX    TMP DP  RH WIND       PRES   REMARKS
BOZEMAN        PTCLDY    59  42  53 W6        29.92R
DILLON         PTCLDY    69  29  22 S10       29.94S
W YELLOWSTONE  CLEAR     50  30  46 SW3       30.12R
$$

MTZ009-010-012-014-046-048-049-054-010500-
EAST SLOPES AND CENTRAL MONTANA

CITY           SKY/WX    TMP DP  RH WIND       PRES   REMARKS
CUT BANK       CLOUDY    58  37  45 SW7       29.86F
GREAT FALLS    MOCLDY    58  37  45 SW7       29.88S
HELENA         PTCLDY    66  39  37 SW5       29.92R
$$

MTZ011-013-016-021-045-047-050-051-010500-
NORTH CENTRAL MONTANA

CITY           SKY/WX    TMP DP  RH WIND       PRES   REMARKS
HAVRE          MOCLDY    60  37  42 S14       29.83R
LEWISTOWN      CLOUDY    58  41  53 S6        29.93R
N BAR RANCH      N/A     54  41  62 NW5       29.97R
CHINOOK          N/A     61  37  41 CALM      29.83R
FORT BENTON      N/A     66  36  32 CALM      29.86R
$$

MTZ017>020-022>027-061-062-010500-
NORTHEAST MONTANA

CITY           SKY/WX    TMP DP  RH WIND       PRES   REMARKS
GLASGOW        CLEAR     61  43  51 SE9       29.83R
JORDAN           N/A     60  36  40 E3        29.87R
SIDNEY         CLEAR     55  41  58 CALM      29.87R
WOLF POINT     PTCLDY    56  45  66 CALM      29.85R
PLENTYWOOD       N/A     63  39  42 S3        29.84S
$$

MTZ028>42-056>058-010500-
SOUTHCENTRAL AND SOUTHEAST MONTANA

CITY           SKY/WX    TMP DP  RH WIND       PRES   REMARKS
BAKER          PTCLDY    60  45  57 SE6       29.93S
BILLINGS       PTCLDY    71  32  23 NE5       29.91R
LIVINGSTON     CLEAR     63  33  32 NW8       29.93R
MILES CITY     PTCLDY    66  40  38 N8        29.88R
FORSYTH          N/A     70  36  28 NE3       29.87S
$$

REGIONAL REPORTS...DAKOTAS

CITY           SKY/WX    TMP DP  RH WIND       PRES   REMARKS
WILLISTON      CLEAR     56  43  61 SW3       29.86S
MINOT          CLEAR     62  44  51 SW6       29.84S
DICKINSON      CLEAR     55  42  61 S8        29.90S
BISMARCK       MOCLDY    60  51  72 SE6       29.91R
GRAND FORKS    MOCLDY    62  55  77 W6        29.84R
FARGO          MOCLDY    67  65  93 CALM      29.86R
BUFFALO SD       N/A     62  53  72 SE14      29.89S
RAPID CITY     CLOUDY    64  58  80 NE3       29.95F
$$

REGIONAL REPORTS...WYOMING/IDAHO/WASHINGTON

CITY           SKY/WX    TMP DP  RH WIND       PRES   REMARKS
GILLETTE       CLEAR     67  53  61 NE8       29.95R
SHERIDAN       PTCLDY    58  47  66 E3        29.94R
BUFFALO WY     PTCLDY    64  42  44 W8        30.01R
CODY           CLEAR     66  28  24 S6        30.00R
YELLOWSTONE LA   N/A     42  29  59 W3        30.23R
IDAHO FALLS    CLEAR     63  34  33 SW5       30.01R
SALMON         CLEAR     63  37  39 N5        29.89R
BOISE          CLEAR     72  44  36 CALM      29.90R
SPOKANE        MOCLDY    65  45  48 S8        29.88R
$$

REGIONAL REPORTS...ALBERTA

CITY           SKY/WX    TMP DP  RH WIND       PRES   REMARKS
$$

REGIONAL REPORTS...SASKATCHEWAN

CITY           SKY/WX    TMP DP  RH WIND       PRES   REMARKS
$$



USA.gov is the U.S. government's official web portal to all federal, state and local government web resources and services.